• In Hungary
  • List of Countries
  • For 7 days
  • Water Temperature
  • Satellite Maps
  • Weather Map
  • News
  • Weather Widgets
  • user-avatar
    Login

    Hourly Weather Tamdysay

    Today, 21 June, Thursday

    Time Temperature Precipitation Wind Pressure Humidity
    00:00 +21°C° 0.1 mm 4 mps 740 mmHg 57%
    01:00 +21°C° 0.1 mm 4 mps 740 mmHg 62%
    02:00 +20°C° 0 mm 3 mps 740 mmHg 67%
    03:00 +20°C° 0 mm 3 mps 740 mmHg 73%
    04:00 +20°C° 0 mm 4 mps 740 mmHg 73%
    05:00 +20°C° 0.2 mm 4 mps 740 mmHg 73%
    06:00 +21°C° 0.2 mm 4 mps 741 mmHg 73%
    07:00 +22°C° 0.2 mm 5 mps 741 mmHg 73%
    08:00 +23°C° 0 mm 5 mps 741 mmHg 65%
    09:00 +25°C° 0 mm 5 mps 741 mmHg 57%
    10:00 +24°C° 0 mm 6 mps 741 mmHg 49%
    11:00 +26°C° 0 mm 6 mps 741 mmHg 44%
    12:00 +26°C° 0 mm 6 mps 741 mmHg 40%
    13:00 +27°C° 0 mm 6 mps 741 mmHg 35%
    14:00 +27°C° 0 mm 6 mps 741 mmHg 34%
    15:00 +27°C° 0 mm 6 mps 741 mmHg 33%
    16:00 +27°C° 0 mm 7 mps 740 mmHg 32%
    17:00 +27°C° 0 mm 6 mps 740 mmHg 36%
    18:00 +26°C° 0 mm 5 mps 741 mmHg 41%
    19:00 +25°C° 0 mm 4 mps 741 mmHg 45%
    20:00 +23°C° 0 mm 4 mps 741 mmHg 48%
    21:00 +22°C° 0 mm 4 mps 741 mmHg 51%
    22:00 +20°C° 0 mm 4 mps 741 mmHg 54%
    23:00 +20°C° 0 mm 3 mps 741 mmHg 56%

    Tomorrow, 22 June, Friday

    Time Temperature Precipitation Wind Pressure Humidity
    00:00 +19°C° 0 mm 3 mps 741 mmHg 59%
    01:00 +18°C° 0 mm 3 mps 741 mmHg 61%
    02:00 +17°C° 0 mm 3 mps 741 mmHg 65%
    03:00 +17°C° 0 mm 3 mps 741 mmHg 68%
    04:00 +16°C° 0 mm 3 mps 742 mmHg 72%
    05:00 +17°C° 0 mm 4 mps 742 mmHg 68%
    06:00 +17°C° 0 mm 5 mps 742 mmHg 65%
    07:00 +17°C° 0 mm 6 mps 742 mmHg 61%
    08:00 +20°C° 0 mm 6 mps 742 mmHg 55%
    09:00 +21°C° 0 mm 7 mps 742 mmHg 49%
    10:00 +22°C° 0 mm 7 mps 742 mmHg 43%
    11:00 +23°C° 0 mm 7 mps 742 mmHg 43%
    12:00 +24°C° 0 mm 7 mps 743 mmHg 42%
    13:00 +24°C° 0 mm 7 mps 743 mmHg 41%
    14:00 +24°C° 0 mm 7 mps 743 mmHg 44%
    15:00 +23°C° 0 mm 7 mps 743 mmHg 47%
    16:00 +23°C° 0 mm 7 mps 743 mmHg 51%
    17:00 +22°C° 0 mm 6 mps 743 mmHg 54%
    18:00 +22°C° 0 mm 6 mps 743 mmHg 57%
    19:00 +22°C° 0 mm 5 mps 743 mmHg 60%
    20:00 +20°C° 0 mm 4 mps 743 mmHg 66%
    21:00 +19°C° 0 mm 4 mps 744 mmHg 72%
    22:00 +17°C° 0 mm 3 mps 744 mmHg 78%
    23:00 +17°C° 0 mm 3 mps 744 mmHg 81%

    Day after tomorrow, 23 June, Saturday

    Time Temperature Precipitation Wind Pressure Humidity
    00:00 +16°C° 0 mm 2 mps 744 mmHg 85%
    01:00 +16°C° 0 mm 2 mps 744 mmHg 88%
    02:00 +15°C° 0 mm 2 mps 744 mmHg 90%
    03:00 +15°C° 0 mm 2 mps 744 mmHg 91%
    04:00 +15°C° 0 mm 2 mps 744 mmHg 93%
    05:00 +16°C° 0 mm 3 mps 745 mmHg 88%
    06:00 +17°C° 0 mm 3 mps 745 mmHg 83%
    07:00 +19°C° 0 mm 3 mps 745 mmHg 79%
    08:00 +20°C° 0 mm 3 mps 745 mmHg 71%
    09:00 +22°C° 0 mm 4 mps 745 mmHg 64%
    10:00 +25°C° 0 mm 4 mps 745 mmHg 56%
    11:00 +25°C° 0 mm 4 mps 745 mmHg 52%
    12:00 +26°C° 0 mm 4 mps 745 mmHg 48%
    13:00 +27°C° 0 mm 5 mps 745 mmHg 44%
    14:00 +28°C° 0 mm 5 mps 745 mmHg 44%
    15:00 +28°C° 0 mm 5 mps 744 mmHg 43%
    16:00 +28°C° 0 mm 5 mps 744 mmHg 43%
    17:00 +27°C° 0 mm 5 mps 744 mmHg 46%
    18:00 +26°C° 0 mm 4 mps 744 mmHg 50%
    19:00 +26°C° 0 mm 4 mps 744 mmHg 53%
    20:00 +23°C° 0 mm 4 mps 745 mmHg 57%
    21:00 +21°C° 0 mm 3 mps 745 mmHg 62%
    22:00 +19°C° 0 mm 3 mps 745 mmHg 66%
    23:00 +19°C° 0 mm 3 mps 745 mmHg 69%

    24 June, Sunday

    Time Temperature Precipitation Wind Pressure Humidity
    00:00 +18°C° 0 mm 3 mps 745 mmHg 71%
    01:00 +17°C° 0 mm 2 mps 745 mmHg 74%
    02:00 +17°C° 0 mm 2 mps 745 mmHg 76%
    03:00 +16°C° 0 mm 2 mps 745 mmHg 78%
    04:00 +16°C° 0 mm 3 mps 746 mmHg 80%
    05:00 +17°C° 0 mm 3 mps 746 mmHg 76%
    06:00 +19°C° 0 mm 3 mps 746 mmHg 71%
    07:00 +20°C° 0 mm 3 mps 746 mmHg 67%
    08:00 +22°C° 0 mm 4 mps 746 mmHg 61%
    09:00 +25°C° 0 mm 4 mps 746 mmHg 55%
    10:00 +27°C° 0 mm 5 mps 746 mmHg 49%
    11:00 +28°C° 0 mm 5 mps 746 mmHg 46%
    12:00 +29°C° 0 mm 5 mps 746 mmHg 43%
    13:00 +29°C° 0 mm 5 mps 746 mmHg 40%
    14:00 +30°C° 0 mm 5 mps 746 mmHg 40%
    15:00 +30°C° 0 mm 5 mps 746 mmHg 40%
    16:00 +30°C° 0 mm 5 mps 746 mmHg 40%
    17:00 +29°C° 0 mm 5 mps 746 mmHg 44%
    18:00 +29°C° 0 mm 4 mps 746 mmHg 48%
    19:00 +28°C° 0 mm 3 mps 747 mmHg 52%
    20:00 +26°C° 0 mm 3 mps 747 mmHg 57%
    21:00 +25°C° 0 mm 3 mps 747 mmHg 62%
    22:00 +23°C° 0 mm 2 mps 748 mmHg 67%
    23:00 +21°C° 0 mm 2 mps 748 mmHg 69%

    25 June, Monday

    Time Temperature Precipitation Wind Pressure Humidity
    00:00 +20°C° 0 mm 2 mps 748 mmHg 72%
    01:00 +19°C° 0 mm 2 mps 748 mmHg 74%
    02:00 +19°C° 0 mm 2 mps 748 mmHg 77%
    03:00 +19°C° 0 mm 1 mps 748 mmHg 79%
    04:00 +19°C° 0 mm 1 mps 748 mmHg 82%
    05:00 +20°C° 0 mm 1 mps 748 mmHg 76%
    06:00 +22°C° 0 mm 1 mps 749 mmHg 70%
    07:00 +24°C° 0 mm 1 mps 749 mmHg 64%
    08:00 +25°C° 0 mm 1 mps 749 mmHg 59%
    09:00 +27°C° 0 mm 1 mps 749 mmHg 53%
    10:00 +28°C° 0 mm 1 mps 749 mmHg 47%
    11:00 +29°C° 0 mm 2 mps 749 mmHg 43%
    12:00 +30°C° 0 mm 2 mps 748 mmHg 39%
    13:00 +31°C° 0 mm 2 mps 748 mmHg 35%
    14:00 +31°C° 0 mm 3 mps 748 mmHg 34%
    15:00 +33°C° 0 mm 4 mps 748 mmHg 34%
    16:00 +33°C° 0 mm 4 mps 748 mmHg 33%
    17:00 +32°C° 0 mm 4 mps 748 mmHg 37%
    18:00 +30°C° 0 mm 4 mps 748 mmHg 42%
    19:00 +29°C° 0 mm 4 mps 748 mmHg 46%
    20:00 +27°C° 0 mm 3 mps 748 mmHg 52%
    21:00 +26°C° 0 mm 3 mps 748 mmHg 57%
    22:00 +24°C° 0 mm 3 mps 748 mmHg 62%
    23:00 +22°C° 0 mm 3 mps 748 mmHg 65%

    26 June, Tuesday

    Time Temperature Precipitation Wind Pressure Humidity
    00:00 +22°C° 0 mm 3 mps 748 mmHg 67%
    01:00 +21°C° 0 mm 3 mps 747 mmHg 70%
    02:00 +21°C° 0 mm 3 mps 747 mmHg 73%
    03:00 +20°C° 0 mm 3 mps 747 mmHg 76%
    04:00 +20°C° 0 mm 3 mps 747 mmHg 79%
    05:00 +21°C° 0 mm 3 mps 747 mmHg 76%
    06:00 +22°C° 0 mm 4 mps 747 mmHg 73%
    07:00 +25°C° 0 mm 4 mps 747 mmHg 70%
    08:00 +26°C° 0 mm 4 mps 747 mmHg 62%
    09:00 +28°C° 0 mm 5 mps 747 mmHg 54%
    10:00 +30°C° 0 mm 5 mps 747 mmHg 47%
    11:00 +32°C° 0 mm 5 mps 747 mmHg 44%
    12:00 +32°C° 0 mm 6 mps 747 mmHg 41%
    13:00 +33°C° 0 mm 6 mps 747 mmHg 39%
    14:00 +33°C° 0 mm 6 mps 747 mmHg 39%
    15:00 +33°C° 0 mm 6 mps 746 mmHg 39%
    16:00 +33°C° 0 mm 6 mps 746 mmHg 39%
    17:00 +32°C° 0 mm 5 mps 746 mmHg 42%
    18:00 +30°C° 0 mm 4 mps 747 mmHg 45%
    19:00 +30°C° 0 mm 3 mps 747 mmHg 48%
    20:00 +28°C° 0 mm 3 mps 747 mmHg 52%
    21:00 +26°C° 0 mm 3 mps 747 mmHg 56%
    22:00 +24°C° 0 mm 2 mps 747 mmHg 61%
    23:00 +23°C° 0 mm 2 mps 747 mmHg 63%
    Show more